Weather History for KSPF - February, 2014

Change the Weather History Date:

Wednesday, February 19, 2014

  Actual Average (KEFC) Record (KEFC)
Temperature  
Mean Temperature 40 °F -  
Max Temperature 53 °F 42 °F 70 °F (1965)
Min Temperature 28 °F 17 °F -18 °F (1959)
Degree Days  
Heating Degree Days 24    
Moisture  
Dew Point 18 °F    
Average Humidity 47    
Maximum Humidity 93    
Minimum Humidity 30    
Precipitation  
Precipitation 0.11 in - - ()
Sea Level Pressure  
Sea Level Pressure 29.57 in    
Wind  
Wind Speed 12 mph (West)    
Max Wind Speed 32 mph    
Max Gust Speed 43 mph    
Visibility 10 miles    
Events Snow    
Averages and records for this station are not official NWS values.
T = Trace of Precipitation, MM = Missing Value Source: NWS Daily Summary

Daily Weather History Graph

Daily Weather History Graph

Search for Another Location

Airport or City:

Trip Planner

Search our weather history database for the weather conditions in past years. The results will help you decide how hot, cold, wet, or windy it might be!

Date:

Astronomy

Feb. 19, 2014 Rise Set
Actual Time 7:48 AM CST 6:29 PM CST
Civil Twilight 7:19 AM CST 6:59 PM CST
Nautical Twilight 6:45 AM CST 7:33 PM CST
Astronomical Twilight 6:11 AM CST 8:06 PM CST
Moon 11:38 PM CST (2/19) 9:44 AM CST (2/19)
Length of Visible Light 11h 40m
Length of Day
10h 40m
Waning Gibbous, 79% of the Moon is Illuminated
Feb 19
Waning Gibbous
Feb 22
Last Quarter
Mar 1
New
Mar 8
First Quarter
Mar 16
Full

Hourly Weather History & Observations

Time (CST) Temp. Windchill Dew Point Humidity Pressure Visibility Wind Dir Wind Speed Gust Speed Precip Events Conditions
12:15 AM 28.4 °F 22.2 °F 15.8 °F 59% 29.77 in 10.0 mi ESE 5.8 mph - N/A   Clear
12:35 AM 30.2 °F 23.4 °F 15.8 °F 55% 29.76 in 10.0 mi ENE 6.9 mph - N/A   Clear
12:55 AM 28.4 °F 23.3 °F 15.8 °F 59% 29.74 in 10.0 mi East 4.6 mph - N/A   Clear
1:15 AM 30.2 °F - 14.0 °F 51% 29.74 in 10.0 mi Calm Calm - N/A   Clear
1:35 AM 28.4 °F - 14.0 °F 55% 29.72 in 10.0 mi Calm Calm - N/A   Clear
1:55 AM 32.0 °F - 14.0 °F 48% 29.70 in 10.0 mi Calm Calm - N/A   Clear
2:15 AM 32.0 °F 28.7 °F 14.0 °F 48% 29.69 in 10.0 mi East 3.5 mph - N/A   Clear
2:35 AM 35.6 °F 32.8 °F 14.0 °F 41% 29.67 in 10.0 mi West 3.5 mph - N/A   Clear
2:55 AM 35.6 °F 31.7 °F 15.8 °F 44% 29.66 in 10.0 mi WSW 4.6 mph - N/A   Clear
3:15 AM 35.6 °F 32.8 °F 15.8 °F 44% 29.64 in 10.0 mi SW 3.5 mph - N/A   Clear
3:35 AM 32.0 °F 28.7 °F 15.8 °F 51% 29.63 in 10.0 mi North 3.5 mph - N/A   Clear
3:55 AM 35.6 °F 28.6 °F 15.8 °F 44% 29.62 in 10.0 mi West 9.2 mph - N/A   Clear
4:15 AM 39.2 °F 30.5 °F 15.8 °F 39% 29.60 in 10.0 mi WSW 16.1 mph 24.2 mph N/A   Clear
4:35 AM 39.2 °F 31.6 °F 15.8 °F 39% 29.59 in 10.0 mi WSW 12.7 mph - N/A   Clear
4:55 AM 39.2 °F 34.2 °F 15.8 °F 39% 29.59 in 10.0 mi WSW 6.9 mph - N/A   Clear
5:15 AM 39.2 °F 31.6 °F 15.8 °F 39% 29.58 in 10.0 mi West 12.7 mph 19.6 mph N/A   Clear
5:35 AM 39.2 °F 31.2 °F 17.6 °F 42% 29.56 in 10.0 mi West 13.8 mph 21.9 mph N/A   Clear
5:55 AM 39.2 °F 30.5 °F 17.6 °F 42% 29.55 in 10.0 mi WSW 16.1 mph 25.3 mph N/A   Clear
6:15 AM 41.0 °F 31.9 °F 17.6 °F 39% 29.54 in 10.0 mi West 19.6 mph 28.8 mph N/A   Clear
6:35 AM 41.0 °F 33.5 °F 17.6 °F 39% 29.54 in 10.0 mi West 13.8 mph 26.5 mph N/A   Clear
6:55 AM 41.0 °F 32.5 °F 17.6 °F 39% 29.53 in 10.0 mi WSW 17.3 mph 28.8 mph N/A   Clear
7:15 AM 41.0 °F 31.1 °F 17.6 °F 39% 29.51 in 10.0 mi WSW 23.0 mph 29.9 mph N/A   Clear
7:35 AM 42.8 °F 33.5 °F 17.6 °F 36% 29.50 in 10.0 mi SW 23.0 mph 31.1 mph N/A   Clear
7:55 AM 41.0 °F 30.7 °F 17.6 °F 39% 29.49 in 10.0 mi SW 25.3 mph 29.9 mph N/A   Clear
8:15 AM 42.8 °F 33.1 °F 17.6 °F 36% 29.48 in 10.0 mi SW 25.3 mph 34.5 mph N/A   Clear
8:35 AM 44.6 °F 36.1 °F 17.6 °F 34% 29.49 in 10.0 mi SW 21.9 mph 28.8 mph N/A   Clear
8:55 AM 44.6 °F 36.1 °F 17.6 °F 34% 29.49 in 10.0 mi SW 21.9 mph 28.8 mph N/A   Clear
9:15 AM 44.6 °F 38.1 °F 17.6 °F 34% 29.48 in 10.0 mi WSW 13.8 mph 21.9 mph N/A   Clear
9:35 AM 44.6 °F 39.2 °F 17.6 °F 34% 29.48 in 10.0 mi West 10.4 mph 23.0 mph N/A   Clear
9:55 AM 44.6 °F 35.9 °F 17.6 °F 34% 29.47 in 10.0 mi WSW 23.0 mph 27.6 mph N/A   Clear
10:15 AM 46.4 °F 38.3 °F 19.4 °F 34% 29.45 in 10.0 mi WSW 23.0 mph 29.9 mph N/A   Clear
10:35 AM 46.4 °F 39.8 °F 19.4 °F 34% 29.45 in 10.0 mi WSW 16.1 mph 21.9 mph N/A   Clear
10:55 AM 46.4 °F 39.5 °F 19.4 °F 34% 29.45 in 10.0 mi WSW 17.3 mph 25.3 mph N/A   Clear
11:15 AM 48.2 °F - 19.4 °F 32% 29.43 in 10.0 mi WSW 17.3 mph 26.5 mph N/A   Clear
11:35 AM 50.0 °F - 19.4 °F 30% 29.43 in 10.0 mi WSW 20.7 mph 28.8 mph N/A   Clear
11:55 AM 50.0 °F - 21.2 °F 32% 29.43 in 10.0 mi WSW 16.1 mph 27.6 mph N/A   Clear
12:15 PM 51.8 °F - 21.2 °F 30% 29.41 in 10.0 mi WSW 21.9 mph 29.9 mph N/A   Clear
12:35 PM 51.8 °F - 21.2 °F 30% 29.41 in 10.0 mi WSW 15.0 mph 28.8 mph N/A   Clear
12:55 PM 51.8 °F - 23.0 °F 33% 29.40 in 10.0 mi WSW 20.7 mph 29.9 mph N/A   Clear
1:15 PM 53.6 °F - 23.0 °F 30% 29.42 in 10.0 mi West 21.9 mph 29.9 mph N/A   Clear
1:35 PM 50.0 °F - 23.0 °F 35% 29.43 in 10.0 mi WNW 21.9 mph 28.8 mph N/A   Clear
1:55 PM 41.0 °F 30.7 °F 28.4 °F 61% 29.46 in 10.0 mi NNW 25.3 mph 32.2 mph N/A   Scattered Clouds
2:15 PM 39.2 °F 27.0 °F 28.4 °F 65% 29.50 in 10.0 mi NW 32.2 mph 42.6 mph N/A   Scattered Clouds
2:35 PM 37.4 °F 25.9 °F 28.4 °F 70% 29.52 in 10.0 mi NW 25.3 mph 33.4 mph N/A   Mostly Cloudy
2:55 PM 37.4 °F 26.1 °F 28.4 °F 70% 29.54 in 9.0 mi WNW 24.2 mph 33.4 mph N/A   Overcast
3:15 PM 35.6 °F 24.2 °F 28.4 °F 75% 29.56 in 10.0 mi WNW 21.9 mph 35.7 mph N/A   Overcast
3:35 PM 33.8 °F 21.3 °F 28.4 °F 81% 29.56 in 3.0 mi NW 24.2 mph 29.9 mph 0.04 in Snow Light Snow
3:55 PM 32.0 °F 20.1 °F 30.2 °F 93% 29.57 in 2.0 mi WNW 19.6 mph 29.9 mph 0.10 in   Mostly Cloudy
4:15 PM 32.0 °F 19.8 °F 26.6 °F 80% 29.58 in 10.0 mi WNW 20.7 mph 27.6 mph N/A Snow Light Snow
4:35 PM 32.0 °F 23.0 °F 28.4 °F 87% 29.60 in 10.0 mi WNW 11.5 mph 18.4 mph N/A Snow Light Snow
4:55 PM 32.0 °F 22.5 °F 28.4 °F 87% 29.60 in 8.0 mi WNW 12.7 mph - 0.01 in Snow Light Snow
5:15 PM 32.0 °F 22.5 °F 26.6 °F 80% 29.59 in 10.0 mi WNW 12.7 mph 18.4 mph N/A   Clear
5:35 PM 32.0 °F 23.0 °F 24.8 °F 75% 29.60 in 10.0 mi WSW 11.5 mph 18.4 mph N/A   Clear
5:55 PM 33.8 °F 25.3 °F 19.4 °F 56% 29.59 in 10.0 mi West 11.5 mph 17.3 mph N/A   Clear
6:15 PM 33.8 °F 25.8 °F 19.4 °F 56% 29.58 in 10.0 mi West 10.4 mph - N/A   Mostly Cloudy
6:35 PM 33.8 °F 24.3 °F 15.8 °F 48% 29.59 in 10.0 mi WNW 13.8 mph 23.0 mph N/A   Overcast
6:55 PM 33.8 °F 22.8 °F 15.8 °F 48% 29.60 in 10.0 mi West 18.4 mph 28.8 mph N/A   Mostly Cloudy
7:15 PM 33.8 °F 23.9 °F 14.0 °F 44% 29.61 in 10.0 mi WNW 15.0 mph 23.0 mph N/A   Partly Cloudy
7:35 PM 32.0 °F 22.5 °F 12.2 °F 44% 29.61 in 10.0 mi WNW 12.7 mph 19.6 mph N/A   Mostly Cloudy
7:55 PM 32.0 °F 22.1 °F 10.4 °F 41% 29.62 in 10.0 mi WNW 13.8 mph 17.3 mph N/A   Overcast
8:15 PM 32.0 °F 23.6 °F 10.4 °F 41% 29.63 in 10.0 mi West 10.4 mph - N/A   Scattered Clouds
8:35 PM 32.0 °F 22.1 °F 12.2 °F 44% 29.63 in 10.0 mi West 13.8 mph 17.3 mph N/A   Clear
8:55 PM 32.0 °F 20.5 °F 10.4 °F 41% 29.63 in 10.0 mi WNW 18.4 mph 26.5 mph N/A   Clear
9:15 PM 32.0 °F 20.5 °F 10.4 °F 41% 29.64 in 10.0 mi WNW 18.4 mph 25.3 mph N/A   Clear
9:35 PM 32.0 °F 21.6 °F 8.6 °F 38% 29.65 in 10.0 mi WNW 15.0 mph 26.5 mph N/A   Clear
9:55 PM 32.0 °F 22.1 °F 8.6 °F 38% 29.65 in 10.0 mi West 13.8 mph 20.7 mph N/A   Clear
10:35 PM 32.0 °F 20.5 °F 6.8 °F 35% 29.66 in 10.0 mi West 18.4 mph 23.0 mph N/A   Clear
10:55 PM 32.0 °F 20.5 °F 6.8 °F 35% 29.66 in 10.0 mi West 18.4 mph 26.5 mph N/A   Clear
11:15 PM 32.0 °F 20.5 °F 8.6 °F 38% 29.65 in 10.0 mi West 18.4 mph 24.2 mph N/A   Clear
11:35 PM 32.0 °F 20.5 °F 8.6 °F 38% 29.66 in 10.0 mi West 18.4 mph 25.3 mph N/A   Clear
11:55 PM 32.0 °F 20.5 °F 8.6 °F 38% 29.66 in 10.0 mi West 18.4 mph 27.6 mph N/A   Clear